period_start,C,m1,H,J0,J1,J2,J3,J4,J5,JA,JB,JC,JD,JJ,JK,JN,#
2015-10-06 00:04:34,0.00,1.00,0.00,20.52,26.23,29.92,14.79,48.85,1017.10,2040.99,3103.98,3033.09,3287.89,599.86,601.11,46.30,0000 0000 0000 0000 000000
2015-10-06 00:09:35,-0.00,1.00,0.00,20.52,26.22,29.91,14.80,48.87,1017.11,2040.99,3103.98,3033.05,3287.80,599.80,601.26,46.35,0000 0000 0000 0000 000000
2015-10-06 00:14:36,-0.00,1.00,0.00,20.51,26.22,29.90,14.80,48.75,1017.12,2040.99,3103.97,3033.09,3287.86,600.08,601.42,46.40,0000 0000 0000 0000 000000
2015-10-06 00:19:38,0.00,1.00,0.00,20.50,26.22,29.97,14.82,48.80,1017.11,2040.99,3103.98,3033.13,3287.92,600.13,601.62,46.45,0000 0000 0000 0000 000000
2015-10-06 00:24:39,0.00,1.00,0.00,20.52,26.22,29.91,14.82,48.65,1017.11,2040.99,3103.97,3033.08,3287.79,600.02,601.45,46.50,0000 0000 0000 0000 000000
2015-10-06 00:29:40,-0.00,1.01,0.00,20.53,26.22,29.86,14.83,48.67,1017.11,2040.99,3103.98,3033.05,3287.68,600.31,601.62,46.55,0000 0000 0000 0000 000000
2015-10-06 00:34:41,0.00,1.01,0.00,20.52,26.22,29.91,14.75,48.72,1017.11,2040.99,3103.97,3033.05,3287.61,600.20,601.57,46.60,0000 0000 0000 0000 000000
2015-10-06 00:39:43,0.00,1.01,0.00,20.52,26.22,29.87,14.81,48.81,1017.11,2040.99,3103.89,3033.02,3287.39,600.16,601.44,46.65,0000 0000 0000 0000 000000
2015-10-06 00:44:44,0.01,1.01,0.00,20.52,26.22,29.89,14.78,48.87,1017.11,2040.99,3103.64,3033.01,3287.17,600.22,601.47,46.70,0000 0000 0000 0000 000000
2015-10-06 00:49:45,0.00,1.01,0.00,20.49,26.22,29.90,14.75,48.83,1017.12,2040.99,3103.34,3033.01,3287.07,599.86,601.23,46.75,0000 0000 0000 0000 000000
2015-10-06 00:54:46,-0.00,1.01,0.00,20.50,26.21,29.88,14.82,48.74,1017.14,2041.00,3103.35,3033.01,3287.12,599.90,601.31,46.80,0000 0000 0000 0000 000000
2015-10-06 00:59:48,0.00,1.01,0.00,20.52,26.21,29.84,14.78,48.77,1017.14,2041.00,3103.08,3033.00,3287.03,600.09,601.43,46.85,0000 0000 0000 0000 000000
2015-10-06 01:04:49,0.00,1.01,0.00,20.52,26.20,29.88,14.76,48.81,1017.12,2041.00,3103.03,3033.00,3287.02,599.78,601.13,46.90,0000 0000 0000 0000 000000
2015-10-06 01:09:50,0.00,1.01,0.00,20.52,26.20,29.87,14.74,48.83,1017.14,2041.00,3103.00,3033.00,3287.01,600.07,601.50,46.96,0000 0000 0000 0000 000000
2015-10-06 01:14:51,0.00,1.01,0.00,20.54,26.20,29.83,14.78,48.72,1017.24,2041.00,3103.00,3033.00,3287.01,600.26,601.66,47.01,0000 0000 0000 0000 000000
2015-10-06 01:19:52,0.00,1.01,0.00,20.52,26.20,29.86,14.65,48.81,1017.32,2041.00,3103.00,3033.00,3287.00,599.45,600.92,47.06,0000 0000 0000 0000 000000
2015-10-06 01:24:54,0.00,1.01,0.00,20.54,26.20,29.89,14.74,48.88,1017.35,2041.00,3103.00,3032.99,3287.00,599.75,601.36,47.11,0000 0000 0000 0000 000000
2015-10-06 01:29:55,0.00,1.01,0.00,20.55,26.20,29.87,14.73,48.88,1017.43,2041.01,3103.00,3032.99,3287.00,599.81,601.29,47.16,0000 0000 0000 0000 000000
2015-10-06 01:34:56,0.00,1.01,0.00,20.54,26.20,29.86,14.78,48.89,1017.46,2041.02,3103.00,3032.99,3287.00,599.64,601.17,47.21,0000 0000 0000 0000 000000
2015-10-06 01:39:58,0.00,1.01,0.00,20.55,26.20,29.82,14.78,48.79,1017.35,2041.01,3103.00,3032.98,3287.00,600.18,601.56,47.26,0000 0000 0000 0000 000000
2015-10-06 01:44:59,0.00,1.01,0.00,20.57,26.20,29.79,14.76,48.80,1017.30,2041.00,3102.97,3032.96,3287.00,600.08,601.48,47.31,0000 0000 0000 0000 000000
2015-10-06 01:50:00,0.00,1.01,0.00,20.55,26.20,29.81,14.75,48.77,1017.26,2041.02,3102.82,3032.94,3286.97,600.05,601.31,47.36,0000 0000 0000 0000 000000
2015-10-06 01:55:02,0.00,1.01,0.00,20.56,26.21,29.82,14.85,48.82,1017.46,2041.02,3102.71,3032.91,3286.98,600.21,601.68,47.41,0000 0000 0000 0000 000000
2015-10-06 02:00:03,0.01,1.01,0.00,20.59,26.22,29.79,14.78,48.76,1017.36,2041.02,3102.31,3032.66,3286.91,600.03,601.46,47.46,0000 0000 0000 0000 000000
2015-10-06 02:05:04,0.01,1.01,0.00,20.60,26.22,29.79,14.72,48.95,1017.37,2041.00,3102.03,3032.18,3286.57,599.80,601.22,47.51,0000 0000 0000 0000 000000
2015-10-06 02:10:06,0.00,1.01,0.00,20.60,26.22,29.83,14.71,48.81,1017.25,2041.00,3102.01,3032.10,3286.40,599.70,600.91,47.56,0000 0000 0000 0000 000000
2015-10-06 02:15:07,0.00,1.01,0.00,20.62,26.22,29.82,14.80,48.77,1017.21,2041.02,3102.00,3032.03,3286.22,600.07,601.29,47.61,0000 0000 0000 0000 000000
2015-10-06 02:20:09,0.00,1.01,0.00,20.62,26.22,29.77,14.79,48.85,1017.22,2041.01,3102.00,3032.01,3286.07,600.37,601.50,47.66,0000 0000 0000 0000 000000
2015-10-06 02:25:10,0.00,1.01,0.00,20.62,26.22,29.83,14.75,48.80,1017.18,2041.01,3101.98,3032.00,3286.02,600.04,601.31,47.71,0000 0000 0000 0000 000000
2015-10-06 02:30:11,0.00,1.01,0.00,20.62,26.22,29.81,14.74,48.82,1017.13,2041.00,3101.94,3032.00,3286.00,599.82,600.99,47.76,0000 0000 0000 0000 000000
2015-10-06 02:35:13,0.00,1.01,0.00,20.62,26.23,29.80,14.79,48.73,1017.13,2041.00,3101.72,3032.00,3286.00,600.14,601.28,47.81,0000 0000 0000 0000 000000
2015-10-06 02:40:14,0.01,1.01,0.00,20.63,26.24,29.88,14.70,48.81,1017.16,2041.00,3101.38,3031.99,3286.00,599.77,600.99,47.86,0000 0000 0000 0000 000000
2015-10-06 02:45:16,0.00,1.01,0.00,20.64,26.25,29.85,14.78,48.81,1017.28,2041.00,3101.05,3031.97,3285.97,599.92,601.08,47.92,0000 0000 0000 0000 000000
2015-10-06 02:50:17,0.00,1.01,0.00,20.64,26.25,29.80,14.79,48.77,1017.27,2041.00,3101.00,3031.87,3285.93,599.90,601.14,47.97,0000 0000 0000 0000 000000
2015-10-06 02:55:18,0.00,1.01,0.00,20.65,26.25,29.84,14.74,48.75,1017.20,2041.00,3101.00,3031.75,3285.77,599.78,600.90,48.02,0000 0000 0000 0000 000000
2015-10-06 03:00:20,0.01,1.01,0.00,20.68,26.25,29.81,14.74,48.72,1017.15,2041.00,3100.98,3031.42,3285.34,600.06,601.09,48.07,0000 0000 0000 0000 000000
2015-10-06 03:05:21,0.01,1.01,0.00,20.68,26.25,29.82,14.78,48.77,1017.15,2041.00,3100.95,3031.12,3285.11,599.95,600.97,48.12,0000 0000 0000 0000 000000
2015-10-06 03:10:22,0.00,1.01,0.00,20.68,26.27,29.80,14.80,48.85,1017.12,2041.00,3100.84,3031.04,3285.03,599.84,600.88,48.17,0000 0000 0000 0000 000000
2015-10-06 03:15:23,0.01,1.01,0.00,20.71,26.27,29.78,14.85,48.85,1017.11,2041.00,3100.52,3031.01,3285.01,600.24,601.23,48.22,0000 0000 0000 0000 000000
2015-10-06 03:20:24,0.00,1.01,0.00,20.72,26.27,29.78,14.76,48.81,1017.11,2041.00,3100.07,3031.00,3285.00,600.07,600.85,48.27,0000 0000 0000 0000 000000
2015-10-06 03:25:26,0.00,1.01,0.00,20.71,26.28,29.83,14.78,48.82,1017.11,2041.00,3100.00,3030.99,3284.99,599.92,600.89,48.32,0000 0000 0000 0000 000000
2015-10-06 03:30:27,0.00,1.01,0.00,20.73,26.29,29.85,14.73,48.75,1017.11,2041.00,3100.00,3030.98,3284.98,600.00,600.92,48.37,0000 0000 0000 0000 000000
2015-10-06 03:35:28,0.01,1.01,0.00,20.73,26.30,29.86,14.75,48.81,1017.12,2041.00,3099.99,3030.93,3284.85,599.87,600.78,48.42,0000 0000 0000 0000 000000
2015-10-06 03:40:29,0.01,1.01,0.00,20.74,26.30,29.85,14.72,48.74,1017.12,2041.00,3099.91,3030.74,3284.46,600.03,600.96,48.47,0000 0000 0000 0000 000000
2015-10-06 03:45:31,0.03,1.02,0.00,20.76,26.31,29.82,14.70,48.81,1017.12,2041.00,3099.47,3030.20,3284.08,599.92,600.91,48.52,0000 0000 0000 0000 000000
2015-10-06 03:50:32,0.01,1.02,0.00,20.76,26.32,29.84,14.70,48.76,1017.13,2041.00,3099.07,3030.04,3284.02,599.88,600.93,48.57,0000 0000 0000 0000 000000
2015-10-06 03:55:34,0.00,1.02,0.00,20.77,26.32,29.84,14.72,48.86,1017.12,2041.00,3099.02,3030.02,3284.00,599.77,600.63,48.62,0000 0000 0000 0000 000000
2015-10-06 04:00:36,0.00,1.02,0.00,20.79,26.32,29.83,14.67,48.79,1017.15,2040.99,3099.00,3030.00,3284.00,599.94,600.77,48.67,0000 0000 0000 0000 000000
2015-10-06 04:05:37,0.00,1.02,0.00,20.79,26.34,29.83,14.80,48.83,1017.15,2040.99,3098.99,3029.99,3283.98,600.05,600.85,48.72,0000 0000 0000 0000 000000
2015-10-06 04:10:39,0.00,1.02,0.00,20.81,26.35,29.86,14.70,48.80,1017.15,2040.99,3098.90,3029.98,3283.94,599.53,600.29,48.77,0000 0000 0000 0000 000000
2015-10-06 04:15:40,0.02,1.02,0.00,20.83,26.35,29.86,14.78,48.80,1017.43,2040.99,3098.29,3029.92,3283.42,599.82,600.81,48.83,0000 0000 0000 0000 000000
2015-10-06 04:20:41,0.02,1.02,0.00,20.83,26.36,29.85,14.71,48.71,1017.52,2040.99,3098.05,3029.59,3283.10,599.90,600.84,48.88,0000 0000 0000 0000 000000
2015-10-06 04:25:42,0.01,1.02,0.00,20.84,26.37,29.89,14.73,48.79,1017.54,2040.99,3098.00,3029.23,3283.01,599.99,600.95,48.93,0000 0000 0000 0000 000000
2015-10-06 04:30:43,0.00,1.02,0.00,20.87,26.37,29.89,14.78,48.83,1017.26,2040.99,3097.99,3029.01,3283.00,600.04,600.75,48.98,0000 0000 0000 0000 000000
2015-10-06 04:35:45,0.00,1.02,0.00,20.87,26.39,29.88,14.71,48.83,1017.17,2040.98,3097.93,3029.00,3282.99,600.00,600.63,49.03,0000 0000 0000 0000 000000
2015-10-06 04:40:46,0.01,1.02,0.00,20.87,26.40,29.87,14.71,48.83,1017.15,2040.97,3097.28,3029.00,3282.85,599.85,600.41,49.08,0000 0000 0000 0000 000000
2015-10-06 04:45:47,0.01,1.02,0.00,20.90,26.40,29.89,14.79,48.73,1017.13,2040.98,3097.04,3028.98,3282.55,600.20,600.88,49.13,0000 0000 0000 0000 000000
2015-10-06 04:50:48,0.00,1.02,0.00,20.91,26.41,29.90,14.73,48.82,1017.14,2040.97,3097.00,3028.88,3282.18,599.78,600.36,49.18,0000 0000 0000 0000 000000
2015-10-06 04:55:49,0.01,1.02,0.00,20.91,26.42,29.88,14.74,48.71,1017.13,2040.94,3096.99,3028.33,3282.01,599.89,600.49,49.23,0000 0000 0000 0000 000000
2015-10-06 05:00:51,0.00,1.02,0.00,20.94,26.43,29.91,14.74,48.81,1017.11,2040.90,3096.89,3028.06,3282.00,599.96,600.42,49.28,0000 0000 0000 0000 000000
2015-10-06 05:05:52,0.01,1.02,0.00,20.97,26.45,29.89,14.74,48.70,1017.13,2040.86,3096.29,3028.00,3281.98,600.03,600.49,49.33,0000 0000 0000 0000 000000
2015-10-06 05:10:53,-0.02,1.02,0.00,20.97,26.45,29.88,14.72,48.80,1017.16,2040.71,3096.03,3027.99,3281.76,599.81,600.32,49.38,0000 0000 0000 0000 000000
2015-10-06 05:15:55,-0.01,1.02,0.00,21.01,26.47,29.91,14.71,48.82,1017.15,2040.39,3096.00,3027.97,3281.17,600.33,600.68,49.43,0000 0000 0000 0000 000000
2015-10-06 05:20:56,-0.00,1.02,0.00,21.02,26.47,29.95,14.71,48.78,1017.18,2040.21,3095.94,3027.80,3281.02,600.11,600.41,49.48,0000 0000 0000 0000 000000
2015-10-06 05:25:57,0.02,1.02,0.00,21.01,26.50,29.94,14.76,48.82,1017.28,2040.11,3095.39,3027.17,3281.00,600.37,600.90,49.53,0000 0000 0000 0000 000000
2015-10-06 05:30:58,0.00,1.02,0.00,21.03,26.50,29.94,14.71,48.77,1017.27,2040.05,3095.03,3027.02,3280.98,599.68,600.25,49.58,0000 0000 0000 0000 000000
2015-10-06 05:35:59,0.01,1.02,0.00,21.07,26.52,30.00,14.74,48.71,1017.39,2040.07,3095.00,3027.00,3280.79,599.77,600.31,49.63,0000 0000 0000 0000 000000
2015-10-06 05:41:01,0.01,1.02,0.00,21.04,26.53,29.99,14.67,48.72,1017.52,2040.03,3094.98,3027.00,3280.11,600.00,600.40,49.68,0000 0000 0000 0000 000000
2015-10-06 05:46:02,0.00,1.02,0.00,21.07,26.55,30.00,14.80,48.75,1017.57,2040.02,3094.86,3026.96,3280.02,600.32,600.82,49.73,0000 0000 0000 0000 000000
2015-10-06 05:51:03,0.02,1.02,0.00,21.11,26.56,30.01,14.72,48.77,1017.57,2040.01,3094.16,3026.54,3280.00,599.89,600.28,49.79,0000 0000 0000 0000 000000
2015-10-06 05:56:04,0.01,1.03,0.00,21.10,26.57,30.06,14.76,48.86,1017.52,2040.00,3094.01,3026.07,3279.99,600.07,600.55,49.84,0000 0000 0000 0000 000000
2015-10-06 06:01:05,0.00,1.03,0.00,21.09,26.58,30.01,14.75,48.82,1017.48,2040.00,3094.00,3026.00,3279.79,599.86,600.20,49.89,0000 0000 0000 0000 000000
2015-10-06 06:06:06,0.01,1.03,0.00,21.10,26.60,29.97,14.76,48.76,1017.44,2040.00,3093.83,3025.99,3279.17,600.48,600.83,49.94,0000 0000 0000 0000 000000
2015-10-06 06:11:08,0.01,1.03,0.00,21.04,26.60,29.95,14.76,48.83,1017.33,2040.00,3093.17,3025.95,3279.01,600.06,600.40,49.99,0000 0000 0000 0000 000000
2015-10-06 06:16:09,0.01,1.03,0.00,20.94,26.62,29.98,14.70,48.73,1017.27,2039.99,3093.01,3025.53,3278.98,600.09,600.62,50.04,0000 0000 0000 0000 000000
2015-10-06 06:21:10,2.41,1.05,0.00,20.82,26.61,30.03,14.76,48.80,1017.32,2039.88,3049.10,2993.20,3245.08,600.10,600.84,50.09,0000 0000 0000 0000 000000
2015-10-06 06:26:11,17.61,1.71,0.00,20.71,26.60,30.10,14.84,49.08,1017.27,2039.05,2631.07,2673.42,2911.99,600.30,601.41,50.14,0000 0000 0000 0000 000000
2015-10-06 06:31:13,16.96,2.45,3.60,20.58,26.60,30.25,14.78,49.31,1017.29,2038.41,2389.10,2486.11,2714.64,599.88,601.18,50.19,0000 0000 0000 0000 000000
2015-10-06 06:36:14,11.21,3.26,4.00,20.49,26.58,30.21,14.78,49.36,1017.27,2037.99,2195.34,2338.68,2553.38,600.01,601.55,50.24,0000 0000 0000 0000 000000
2015-10-06 06:41:15,7.55,3.69,4.00,20.47,26.57,30.12,14.80,49.46,1017.25,2037.99,2187.19,2332.38,2545.48,599.48,601.02,50.29,0000 0000 0000 0000 000000
2015-10-06 06:46:16,3.20,3.99,4.00,20.47,26.56,30.04,14.81,49.54,1017.27,2037.99,2187.99,2332.83,2545.95,599.88,601.48,50.34,0000 0000 0000 0000 000000
2015-10-06 06:51:18,-0.09,4.01,4.00,20.47,26.54,29.96,14.82,49.46,1017.13,2037.99,2189.12,2333.71,2547.08,600.49,601.95,50.39,0000 0000 0000 0000 000000
2015-10-06 06:56:19,-0.06,4.01,4.00,20.48,26.52,29.92,14.74,49.53,1017.13,2038.00,2189.98,2334.30,2547.95,599.65,601.05,50.44,0000 0000 0000 0000 000000
2015-10-06 07:01:20,-0.06,4.00,5.87,20.51,26.50,29.92,14.74,49.49,1017.12,2038.02,2190.80,2334.97,2548.72,599.73,601.09,50.49,0000 0000 0000 0000 000000
2015-10-06 07:06:22,0.00,4.00,6.00,20.54,26.49,29.89,14.81,49.53,1017.12,2038.04,2190.96,2335.00,2548.99,600.21,601.54,50.54,0000 0000 0000 0000 000000
2015-10-06 07:11:23,0.01,4.00,6.00,20.56,26.47,29.88,14.76,49.59,1017.12,2038.12,2190.68,2334.98,2548.96,599.73,601.02,50.59,0000 0000 0000 0000 000000
2015-10-06 07:16:24,0.00,4.00,6.00,20.60,26.45,29.87,14.74,49.66,1017.12,2038.18,2190.98,2334.99,2548.99,599.73,600.92,50.64,0000 0000 0000 0000 000000
2015-10-06 07:21:26,-0.01,4.00,6.00,20.62,26.44,29.86,14.74,49.54,1017.14,2038.31,2191.01,2335.12,2549.22,599.65,600.91,50.69,0000 0000 0000 0000 000000
2015-10-06 07:26:27,-0.03,4.00,6.00,20.62,26.42,29.88,14.82,49.58,1017.17,2038.59,2191.44,2335.83,2549.91,600.18,601.36,50.75,0000 0000 0000 0000 000000
2015-10-06 07:31:28,0.02,4.00,0.20,20.64,26.41,29.89,14.73,49.59,1017.14,2038.78,2191.96,2335.98,2549.99,599.93,601.14,50.80,0000 0000 0000 0000 000000
2015-10-06 07:36:29,0.00,4.00,0.00,20.68,26.40,29.90,14.85,49.64,1017.17,2038.92,2191.99,2336.00,2550.03,599.96,601.24,50.85,0000 0000 0000 0000 000000
2015-10-06 07:41:31,-0.01,4.00,0.00,20.70,26.40,29.89,14.75,49.55,1017.15,2038.95,2192.02,2336.04,2550.45,600.23,601.20,50.90,0000 0000 0000 0000 000000
2015-10-06 07:46:32,-0.02,4.00,0.00,20.71,26.39,29.88,14.81,49.54,1017.13,2038.96,2192.15,2336.12,2550.91,600.28,601.22,50.95,0000 0000 0000 0000 000000
2015-10-06 07:51:33,-0.04,4.00,0.00,20.73,26.37,29.85,14.75,49.52,1017.13,2038.95,2192.78,2336.63,2550.98,600.04,601.08,51.00,0000 0000 0000 0000 000000
2015-10-06 07:56:34,-0.00,4.00,0.00,20.74,26.37,29.86,14.81,49.51,1017.14,2038.99,2192.96,2336.95,2550.99,600.01,600.84,51.05,0000 0000 0000 0000 000000
2015-10-06 08:01:35,0.00,4.00,0.00,20.74,26.37,29.85,14.68,49.58,1017.12,2038.99,2192.92,2336.95,2550.99,599.63,600.61,51.10,0000 0000 0000 0000 000000
2015-10-06 08:06:37,-0.00,4.00,0.00,20.75,26.37,29.82,14.72,49.51,1017.13,2038.99,2192.88,2336.95,2551.00,599.79,600.66,51.15,0000 0000 0000 0000 000000
2015-10-06 08:11:38,-0.00,4.00,0.00,20.79,26.37,29.84,14.78,49.46,1017.12,2038.99,2192.94,2336.98,2551.01,600.12,601.03,51.20,0000 0000 0000 0000 000000
2015-10-06 08:16:39,0.00,4.00,0.00,20.83,26.37,29.81,14.82,49.51,1017.13,2038.99,2192.97,2336.99,2551.01,600.33,601.01,51.25,0000 0000 0000 0000 000000
2015-10-06 08:21:41,0.00,4.00,0.00,20.87,26.37,29.82,14.67,49.42,1017.14,2038.99,2192.95,2336.97,2551.04,599.92,600.40,51.30,0000 0000 0000 0000 000000
2015-10-06 08:26:42,0.00,4.00,0.00,20.90,26.37,29.78,14.80,49.55,1017.13,2038.99,2192.80,2336.98,2551.01,600.15,600.73,51.35,0000 0000 0000 0000 000000
2015-10-06 08:31:43,0.01,4.00,0.00,20.94,26.37,29.75,14.70,49.37,1017.13,2038.99,2192.59,2336.95,2551.01,600.30,600.86,51.40,0000 0000 0000 0000 000000
2015-10-06 08:36:44,0.01,4.00,0.00,20.98,26.39,29.75,14.70,49.33,1017.14,2038.99,2192.32,2336.92,2551.00,599.95,600.37,51.45,0000 0000 0000 0000 000000
2015-10-06 08:41:45,0.02,4.00,0.00,21.01,26.40,29.76,14.76,49.34,1017.14,2038.98,2192.10,2336.70,2551.00,600.21,600.48,51.50,0000 0000 0000 0000 000000
2015-10-06 08:46:47,0.01,4.00,0.00,21.03,26.40,29.79,14.78,49.43,1017.13,2038.99,2192.03,2336.56,2551.00,600.09,600.42,51.55,0000 0000 0000 0000 000000
2015-10-06 08:51:48,0.01,4.00,0.00,21.07,26.42,29.77,14.74,49.42,1017.20,2038.99,2192.02,2336.32,2550.98,600.10,600.51,51.60,0000 0000 0000 0000 000000
2015-10-06 08:56:50,0.00,4.00,0.00,21.10,26.43,29.79,14.74,49.38,1017.21,2038.98,2192.01,2336.14,2550.98,599.94,600.13,51.66,0000 0000 0000 0000 000000
2015-10-06 09:01:51,0.00,4.00,0.00,21.12,26.45,29.81,14.76,49.48,1017.14,2038.98,2192.00,2336.05,2550.97,600.10,600.19,51.71,0000 0000 0000 0000 000000
2015-10-06 09:06:52,0.01,4.00,0.00,21.14,26.46,29.83,14.65,49.35,1017.14,2038.98,2192.00,2336.03,2550.89,599.95,599.98,51.76,0000 0000 0000 0000 000000
2015-10-06 09:11:54,0.00,4.00,0.00,21.17,26.47,29.83,14.72,49.48,1017.26,2038.96,2192.00,2336.00,2550.64,599.97,600.20,51.81,0000 0000 0000 0000 000000
2015-10-06 09:16:55,0.00,4.00,0.00,21.16,26.50,29.84,14.73,49.46,1017.32,2038.90,2191.98,2336.00,2550.20,599.86,599.96,51.86,0000 0000 0000 0000 000000
2015-10-06 09:21:56,-0.02,4.00,0.00,21.13,26.50,29.88,14.79,49.42,1017.22,2038.58,2191.57,2335.98,2550.01,600.07,600.25,51.91,0000 0000 0000 0000 000000
2015-10-06 09:26:58,0.01,4.00,0.00,21.13,26.52,29.90,14.73,49.48,1017.32,2038.36,2191.15,2335.97,2550.00,600.12,600.37,51.96,0000 0000 0000 0000 000000
2015-10-06 09:31:59,-0.03,4.00,0.00,21.15,26.54,29.91,14.75,49.47,1017.40,2038.14,2191.03,2335.88,2550.00,599.84,600.32,52.01,0000 0000 0000 0000 000000
2015-10-06 09:37:01,0.02,4.00,0.00,21.15,26.55,29.91,14.81,49.42,1017.41,2038.06,2191.01,2335.41,2550.00,599.84,600.21,52.06,0000 0000 0000 0000 000000
2015-10-06 09:42:02,0.01,4.00,0.00,21.12,26.57,29.97,14.73,49.47,1017.53,2038.03,2191.00,2335.11,2549.97,599.74,600.19,52.11,0000 0000 0000 0000 000000
2015-10-06 09:47:03,0.01,4.00,0.00,21.14,26.57,29.96,14.79,49.47,1017.56,2038.01,2190.99,2335.03,2549.71,600.42,600.85,52.16,0000 0000 0000 0000 000000
2015-10-06 09:52:04,0.01,4.00,0.00,21.15,26.59,29.97,14.69,49.50,1017.59,2038.01,2190.98,2335.00,2549.23,599.81,600.12,52.21,0000 0000 0000 0000 000000
2015-10-06 09:57:05,0.01,4.00,0.00,21.14,26.60,30.05,14.65,49.48,1017.59,2038.00,2190.83,2335.00,2549.06,599.74,600.06,52.26,0000 0000 0000 0000 000000
2015-10-06 10:02:06,0.02,4.00,0.00,21.14,26.61,30.07,14.79,49.50,1017.59,2038.00,2190.19,2334.98,2549.01,600.10,600.37,52.31,0000 0000 0000 0000 000000
2015-10-06 10:07:07,0.00,4.00,0.00,21.17,26.62,30.08,14.68,49.38,1017.59,2038.00,2190.02,2334.97,2549.00,600.02,600.33,52.36,0000 0000 0000 0000 000000
2015-10-06 10:12:08,0.02,4.00,0.00,21.17,26.64,30.11,14.78,49.48,1017.59,2037.99,2190.00,2334.59,2548.98,600.03,600.35,52.41,0000 0000 0000 0000 000000
2015-10-06 10:17:09,0.01,4.00,0.00,21.17,26.65,30.13,14.81,49.62,1017.58,2037.99,2189.99,2334.25,2548.96,599.99,600.32,52.46,0000 0000 0000 0000 000000
2015-10-06 10:22:10,0.01,4.00,0.00,21.17,26.66,30.11,14.77,49.57,1017.54,2037.98,2189.96,2334.06,2548.77,600.10,600.46,52.51,0000 0000 0000 0000 000000
2015-10-06 10:27:11,0.01,4.01,0.00,21.17,26.67,30.13,14.81,49.50,1017.58,2037.99,2189.76,2334.01,2548.26,600.00,600.39,52.57,0000 0000 0000 0000 000000
2015-10-06 10:32:13,0.02,4.01,0.00,21.17,26.67,30.16,14.70,49.47,1017.59,2037.98,2189.18,2334.00,2548.03,600.05,600.37,52.62,0000 0000 0000 0000 000000
2015-10-06 10:37:14,0.00,4.01,0.00,21.19,26.69,30.16,14.78,49.55,1017.59,2037.99,2189.03,2334.00,2548.01,600.15,600.36,52.67,0000 0000 0000 0000 000000
2015-10-06 10:42:15,-0.00,4.01,0.00,21.19,26.70,30.15,14.76,49.50,1017.59,2037.95,2189.00,2333.98,2548.00,599.81,600.04,52.72,0000 0000 0000 0000 000000
2015-10-06 10:47:17,-0.01,4.01,0.00,21.17,26.71,30.19,14.83,49.52,1017.59,2037.89,2189.00,2333.95,2547.99,600.26,600.56,52.77,0000 0000 0000 0000 000000
2015-10-06 10:52:18,0.01,4.01,0.00,21.20,26.72,30.21,14.77,49.46,1017.59,2037.87,2188.97,2333.82,2547.96,599.97,600.30,52.82,0000 0000 0000 0000 000000
2015-10-06 10:57:19,0.01,4.01,0.00,21.22,26.73,30.17,14.83,49.55,1017.59,2037.78,2188.92,2333.44,2547.85,600.16,600.34,52.87,0000 0000 0000 0000 000000
2015-10-06 11:02:21,0.02,4.01,0.00,21.20,26.75,30.23,14.74,49.59,1017.59,2037.68,2188.50,2333.11,2547.38,599.93,600.17,52.92,0000 0000 0000 0000 000000
2015-10-06 11:07:22,-0.01,4.01,0.00,21.20,26.75,30.24,14.74,49.52,1017.59,2037.36,2188.03,2333.01,2547.04,600.09,600.20,52.97,0000 0000 0000 0000 000000
2015-10-06 11:12:23,-0.01,4.01,0.00,21.23,26.76,30.29,14.82,49.53,1017.59,2037.27,2188.00,2333.00,2547.01,599.97,600.12,53.02,0000 0000 0000 0000 000000
2015-10-06 11:17:25,-0.00,4.01,0.00,21.24,26.77,30.28,14.76,49.48,1017.59,2037.11,2187.98,2332.98,2546.98,600.26,600.31,53.07,0000 0000 0000 0000 000000
2015-10-06 11:22:26,0.01,4.01,0.00,21.24,26.78,30.25,14.69,49.48,1017.59,2037.04,2187.59,2332.96,2546.90,599.79,599.85,53.12,0000 0000 0000 0000 000000
2015-10-06 11:27:27,0.04,4.01,0.00,21.26,26.80,30.21,14.76,49.56,1017.59,2037.03,2187.10,2332.62,2546.46,599.90,600.01,53.17,0000 0000 0000 0000 000000
2015-10-06 11:32:29,0.02,4.01,0.00,21.49,26.81,30.04,14.72,49.30,1017.59,2037.02,2187.01,2332.10,2546.04,600.05,599.83,53.22,0000 0000 0000 0000 000000
2015-10-06 11:37:30,0.00,4.01,0.00,21.66,26.83,29.99,14.71,49.22,1017.59,2037.00,2186.99,2332.00,2546.00,599.96,599.31,53.27,0000 0000 0000 0000 000000
2015-10-06 11:42:31,0.01,4.01,0.00,21.53,26.85,30.04,14.69,49.37,1017.59,2037.00,2186.65,2332.00,2545.95,599.80,599.48,53.32,0000 0000 0000 0000 000000
2015-10-06 11:47:33,0.03,4.01,0.00,21.47,26.87,30.08,14.73,49.31,1017.59,2037.00,2186.05,2331.92,2545.49,600.33,600.04,53.37,0000 0000 0000 0000 000000
2015-10-06 11:52:34,0.03,4.01,0.00,21.43,26.87,30.11,14.69,49.39,1017.59,2037.00,2186.00,2331.50,2545.04,599.71,599.50,53.42,0000 0000 0000 0000 000000
2015-10-06 11:57:35,0.01,4.02,0.00,21.39,26.90,30.16,14.78,49.38,1017.59,2036.99,2185.95,2331.07,2545.00,600.13,599.91,53.48,0000 0000 0000 0000 000000
2015-10-06 12:02:36,0.01,4.02,0.00,21.37,26.90,30.19,14.71,49.42,1017.57,2036.99,2185.56,2331.02,2545.00,599.95,599.79,53.53,0000 0000 0000 0000 000000
2015-10-06 12:07:38,0.01,4.02,0.00,21.34,26.90,30.25,14.71,49.48,1017.54,2036.99,2185.07,2331.00,2544.95,599.96,600.01,53.58,0000 0000 0000 0000 000000
2015-10-06 12:12:39,0.01,4.02,0.00,21.32,26.92,30.34,14.78,49.61,1017.33,2036.97,2185.00,2330.97,2544.36,600.17,600.05,53.63,0000 0000 0000 0000 000000
2015-10-06 12:17:40,0.01,4.02,0.00,21.30,26.92,30.36,14.76,49.53,1017.31,2036.97,2184.94,2330.87,2544.02,600.06,599.84,53.68,0000 0000 0000 0000 000000
2015-10-06 12:22:41,0.03,4.02,0.00,21.28,26.92,30.37,14.74,49.56,1017.29,2036.95,2184.39,2330.44,2544.00,600.05,599.90,53.73,0000 0000 0000 0000 000000
2015-10-06 12:27:42,0.02,4.02,0.00,21.28,26.92,30.42,14.78,49.68,1017.44,2036.96,2184.05,2330.17,2544.00,599.84,599.80,53.78,0000 0000 0000 0000 000000
2015-10-06 12:32:44,0.00,4.02,0.00,21.28,26.92,30.43,14.72,49.49,1017.53,2036.93,2184.00,2330.03,2543.96,599.88,599.93,53.83,0000 0000 0000 0000 000000
2015-10-06 12:37:45,0.00,4.02,0.00,21.26,26.92,30.45,14.73,49.54,1017.50,2036.81,2183.96,2330.00,2543.46,599.92,600.02,53.88,0000 0000 0000 0000 000000
2015-10-06 12:42:46,0.03,4.02,0.00,21.27,26.92,30.48,14.71,49.55,1017.52,2036.89,2183.51,2330.00,2543.08,599.95,600.09,53.93,0000 0000 0000 0000 000000
2015-10-06 12:47:47,-0.01,4.02,0.00,21.26,26.92,30.50,14.76,49.63,1017.51,2036.78,2183.03,2329.92,2543.01,599.86,599.94,53.98,0000 0000 0000 0000 000000
2015-10-06 12:52:49,0.02,4.02,0.00,21.25,26.93,30.50,14.72,49.52,1017.51,2036.80,2183.00,2329.70,2542.99,599.97,600.10,54.03,0000 0000 0000 0000 000000
2015-10-06 12:57:50,0.02,4.03,0.00,21.33,26.94,30.39,14.73,49.63,1017.54,2036.72,2182.96,2329.20,2542.94,600.20,600.19,54.08,0000 0000 0000 0000 000000